START_TIME,STEP,MOV.,M34,t_acc.,L5,t_acc.,L18,t_acc.,L14,t_acc.
1981-08-28 03:00:25.440 ,7,1,0.,12.0,0.,12.0,0.,12.0,0.,12.0
1981-08-28 03:00:37.440 ,7,1,0.,12.0,0.,12.0,0.,12.0,0.,12.0
1981-08-28 03:00:49.440 ,7,1,0.,12.0,0.,12.0,0.,12.0,0.,12.0
1981-08-28 03:01:01.440 ,7,1,0.,12.0,0.,12.0,0.,12.0,0.,12.0
1981-08-28 03:01:13.440 ,7,0,0.,12.0,0.,12.0,0.,12.0,0.,12.0
1981-08-28 03:01:25.440 ,7,0,0.,12.0,0.,12.0,0.,12.0,0.,12.0
1981-08-28 03:01:37.440 ,6,1,0.,12.0,0.,12.0,0.,12.0,0.,12.0
1981-08-28 03:01:49.440 ,6,1,0.,12.0,0.,12.0,0.,12.0,0.,12.0
1981-08-28 03:02:01.440 ,6,0,0.,12.0,0.,12.0,0.,12.0,0.,12.0
1981-08-28 03:02:13.440 ,6,0,0.,12.0,0.,12.0,0.,12.0,0.,12.0
1981-08-28 03:02:25.440 ,5,1,0.,12.0,0.,12.0,0.,12.0,0.,12.0
1981-08-28 03:02:37.440 ,5,1,0.,12.0,0.,12.0,0.,12.0,0.,12.0
1981-08-28 03:02:49.440 ,5,0,0.,12.0,0.,12.0,0.,12.0,0.,12.0
1981-08-28 03:03:01.440 ,5,0,0.,12.0,0.,12.0,0.,12.0,0.,12.0
1981-08-28 03:03:13.440 ,4,1,0.,12.0,0.,12.0,0.,12.0,0.,12.0
1981-08-28 03:03:25.440 ,4,1,0.,12.0,0.,12.0,0.,12.0,0.,12.0
1981-08-28 03:03:37.440 ,4,0,0.,12.0,0.,12.0,0.,12.0,0.,12.0
1981-08-28 03:03:49.440 ,4,0,0.,12.0,0.,12.0,0.,12.0,0.,12.0
1981-08-28 03:04:01.440 ,3,1,0.,12.0,0.,12.0,0.,12.0,0.,12.0
1981-08-28 03:04:13.440 ,3,1,0.,12.0,0.,12.0,0.,12.0,0.,12.0
1981-08-28 03:04:25.440 ,3,0,0.,12.0,0.,12.0,0.,12.0,0.,12.0
1981-08-28 03:04:37.440 ,3,0,0.,12.0,0.,12.0,0.,12.0,0.,12.0
1981-08-28 03:04:49.440 ,2,1,0.,12.0,0.,12.0,0.,12.0,0.,12.0
1981-08-28 03:05:01.440 ,2,1,0.,12.0,0.,12.0,0.,12.0,0.,12.0
1981-08-28 03:05:13.440 ,2,0,0.,12.0,0.,12.0,0.,12.0,0.,12.0
1981-08-28 03:05:25.440 ,2,0,0.,12.0,0.,12.0,0.,12.0,0.,12.0
1981-08-28 03:05:37.440 ,1,1,0.,12.0,0.,12.0,0.,12.0,0.,12.0
1981-08-28 03:05:49.440 ,1,1,0.,12.0,0.,12.0,0.,12.0,0.,12.0
1981-08-28 03:06:01.440 ,1,0,0.,12.0,0.,12.0,0.,12.0,0.,12.0
1981-08-28 03:06:13.440 ,1,0,0.,12.0,0.,12.0,0.,12.0,0.,12.0
1981-08-28 03:06:25.440 ,0,1,0.,12.0,0.,12.0,0.,12.0,0.,12.0
1981-08-28 03:06:37.440 ,0,1,0.,12.0,0.,12.0,0.,12.0,0.,12.0
1981-08-28 03:06:49.440 ,0,0,0.,12.0,0.,12.0,0.,12.0,0.,12.0
1981-08-28 03:07:01.440 ,0,0,0.,12.0,0.,12.0,0.,12.0,0.,12.0
1981-08-28 03:09:37.440 ,0,0,0.,12.0,0.,12.0,0.,12.0,0.,12.0
1981-08-28 03:09:49.440 ,0,0,0.,12.0,0.,12.0,0.,12.0,0.,12.0
1981-08-28 03:10:01.440 ,0,0,0.,12.0,0.,12.0,0.,12.0,0.,12.0
1981-08-28 03:10:13.440 ,0,0,0.,12.0,0.,12.0,0.,12.0,0.,12.0
1981-08-28 03:10:25.440 ,4,1,0.,12.0,0.,12.0,0.,12.0,0.,12.0
1981-08-28 03:10:37.440 ,4,1,0.,12.0,0.,12.0,0.,12.0,0.,12.0
1981-08-28 03:10:49.440 ,4,0,0.,12.0,0.,12.0,0.,12.0,0.,12.0
1981-08-28 03:11:01.440 ,4,0,0.,12.0,0.,12.0,0.,12.0,0.,12.0
1981-08-28 03:11:13.440 ,5,1,0.,12.0,0.,12.0,0.,12.0,0.,12.0
1981-08-28 03:11:25.440 ,5,1,0.,12.0,0.,12.0,0.,12.0,0.,12.0
1981-08-28 03:11:37.440 ,5,0,0.,12.0,0.,12.0,0.,12.0,0.,12.0
1981-08-28 03:11:49.440 ,5,0,0.,12.0,0.,12.0,0.,12.0,0.,12.0
1981-08-28 03:12:49.440 ,0,0,0.,12.0,0.,12.0,0.,12.0,0.,12.0
1981-08-28 03:13:01.440 ,0,0,0.,12.0,0.,12.0,0.,12.0,0.,12.0
1981-08-28 03:13:13.440 ,0,0,0.,12.0,0.,12.0,0.,12.0,0.,12.0
1981-08-28 03:13:25.440 ,0,0,0.,12.0,0.,12.0,0.,12.0,0.,12.0
1981-08-28 03:15:13.440 ,0,0,0.,12.0,0.,12.0,0.,12.0,0.,12.0
1981-08-28 03:15:25.440 ,0,0,0.,12.0,0.,12.0,0.,12.0,0.,12.0
1981-08-28 03:15:37.440 ,2,1,0.,12.0,0.,12.0,0.,12.0,0.,12.0
1981-08-28 03:15:49.440 ,2,1,0.,12.0,0.,12.0,0.,12.0,0.,12.0
1981-08-28 03:16:01.440 ,1,1,0.,12.0,1.,12.0,0.,12.0,0.,12.0
1981-08-28 03:16:13.440 ,1,1,0.,12.0,0.,12.0,0.,12.0,0.,12.0
1981-08-28 03:16:25.440 ,0,1,0.,12.0,0.,12.0,0.,12.0,0.,12.0
1981-08-28 03:16:37.440 ,0,1,0.,12.0,0.,12.0,0.,12.0,0.,12.0
1981-08-28 03:16:49.440 ,0,1,0.,12.0,0.,12.0,0.,12.0,0.,12.0
1981-08-28 03:17:01.440 ,0,1,0.,12.0,0.,12.0,0.,12.0,0.,12.0
1981-08-28 03:17:13.440 ,1,1,0.,12.0,0.,12.0,0.,12.0,0.,12.0
1981-08-28 03:17:25.440 ,1,1,0.,12.0,0.,12.0,0.,12.0,0.,12.0
1981-08-28 03:17:37.440 ,2,1,0.,12.0,0.,12.0,0.,12.0,0.,12.0
1981-08-28 03:17:49.440 ,2,1,0.,12.0,0.,12.0,0.,12.0,0.,12.0
1981-08-28 03:18:01.440 ,3,1,0.,12.0,0.,12.0,0.,12.0,0.,12.0
1981-08-28 03:18:13.440 ,3,1,0.,12.0,0.,12.0,0.,12.0,0.,12.0
1981-08-28 03:18:25.440 ,4,1,0.,12.0,0.,12.0,0.,12.0,0.,12.0
1981-08-28 03:18:37.440 ,4,1,0.,12.0,0.,12.0,0.,12.0,0.,12.0
1981-08-28 03:18:49.440 ,5,1,0.,12.0,0.,12.0,0.,12.0,0.,12.0
1981-08-28 03:19:01.440 ,5,1,0.,12.0,0.,12.0,0.,12.0,0.,12.0
1981-08-28 03:19:13.440 ,6,1,0.,12.0,0.,12.0,0.,12.0,0.,12.0
1981-08-28 03:19:25.440 ,6,1,0.,12.0,0.,12.0,0.,12.0,0.,12.0
1981-08-28 03:19:37.440 ,7,1,0.,12.0,0.,12.0,0.,12.0,0.,12.0
1981-08-28 03:19:49.440 ,7,1,0.,12.0,0.,12.0,0.,12.0,0.,12.0
1981-08-28 03:24:16.440 ,0,0,,0,,0,,0,,0
1981-08-28 03:24:28.440 ,0,0,,0,,0,,0,,0
1981-08-28 03:24:25.440 ,0,0,0.,12.0,0.,12.0,0.,12.0,0.,12.0
1981-08-28 03:24:37.440 ,0,0,0.,12.0,0.,12.0,0.,12.0,0.,12.0
1981-08-28 03:24:49.440 ,1,1,0.,12.0,0.,12.0,0.,12.0,0.,12.0
1981-08-28 03:25:01.440 ,1,1,0.,12.0,0.,12.0,0.,12.0,0.,12.0
1981-08-28 03:25:13.440 ,1,0,0.,12.0,0.,12.0,0.,12.0,0.,12.0
1981-08-28 03:25:25.440 ,1,0,0.,12.0,0.,12.0,0.,12.0,0.,12.0
1981-08-28 03:25:37.440 ,0,1,0.,12.0,0.,12.0,0.,12.0,0.,12.0
1981-08-28 03:25:49.440 ,0,1,0.,12.0,0.,12.0,0.,12.0,0.,12.0
1981-08-28 03:26:01.440 ,0,0,0.,12.0,0.,12.0,0.,12.0,0.,12.0
1981-08-28 03:26:13.440 ,0,0,0.,12.0,0.,12.0,0.,12.0,0.,12.0
1981-08-28 03:26:25.440 ,0,1,0.,12.0,0.,12.0,0.,12.0,0.,12.0
1981-08-28 03:26:37.440 ,0,1,0.,12.0,0.,12.0,0.,12.0,0.,12.0
1981-08-28 03:26:49.440 ,0,0,0.,12.0,0.,12.0,0.,12.0,0.,12.0
1981-08-28 03:27:01.440 ,0,0,0.,12.0,0.,12.0,0.,12.0,0.,12.0
1981-08-28 03:27:13.440 ,1,1,0.,12.0,0.,12.0,0.,12.0,0.,12.0
1981-08-28 03:27:25.440 ,1,1,0.,12.0,0.,12.0,0.,12.0,0.,12.0
1981-08-28 03:27:37.440 ,1,0,0.,12.0,0.,12.0,0.,12.0,0.,12.0
1981-08-28 03:27:49.440 ,1,0,0.,12.0,0.,12.0,0.,12.0,0.,12.0
1981-08-28 03:28:01.440 ,2,1,0.,12.0,0.,12.0,0.,12.0,0.,12.0
1981-08-28 03:28:13.440 ,2,1,0.,12.0,0.,12.0,0.,12.0,0.,12.0
1981-08-28 03:28:25.440 ,2,0,0.,12.0,0.,12.0,0.,12.0,0.,12.0
1981-08-28 03:28:37.440 ,2,0,0.,12.0,0.,12.0,0.,12.0,0.,12.0
1981-08-28 03:28:49.440 ,3,1,0.,12.0,0.,12.0,0.,12.0,0.,12.0
1981-08-28 03:29:01.440 ,3,1,0.,12.0,0.,12.0,0.,12.0,0.,12.0
1981-08-28 03:29:13.440 ,3,0,0.,12.0,0.,12.0,0.,12.0,0.,12.0
1981-08-28 03:29:25.440 ,3,0,0.,12.0,0.,12.0,0.,12.0,0.,12.0
1981-08-28 03:29:37.440 ,3,0,0.,12.0,0.,12.0,0.,12.0,0.,12.0
1981-08-28 03:29:49.440 ,3,0,,0,,0,,0,,0
1981-08-28 03:30:01.440 ,4,0,0.,12.0,0.,12.0,0.,12.0,0.,12.0
1981-08-28 03:30:13.440 ,4,0,0.,12.0,0.,12.0,0.,12.0,0.,12.0
1981-08-28 03:30:25.440 ,5,1,0.,12.0,0.,12.0,0.,12.0,0.,12.0
1981-08-28 03:30:37.440 ,5,1,0.,12.0,0.,12.0,0.,12.0,0.,12.0
1981-08-28 03:30:49.440 ,5,0,0.,12.0,0.,12.0,0.,12.0,0.,12.0
1981-08-28 03:31:01.440 ,5,0,0.,12.0,0.,12.0,0.,12.0,0.,12.0
1981-08-28 03:31:13.440 ,6,1,0.,12.0,0.,12.0,0.,12.0,0.,12.0
1981-08-28 03:31:25.440 ,6,1,0.,12.0,0.,12.0,0.,12.0,0.,12.0
1981-08-28 03:31:37.440 ,6,0,0.,12.0,0.,12.0,0.,12.0,0.,12.0
1981-08-28 03:31:49.440 ,6,0,0.,12.0,0.,12.0,0.,12.0,0.,12.0
1981-08-28 03:32:01.440 ,7,1,0.,12.0,0.,12.0,0.,12.0,0.,12.0
1981-08-28 03:32:13.440 ,7,1,0.,12.0,0.,12.0,0.,12.0,0.,12.0
1981-08-28 03:32:25.440 ,7,0,0.,12.0,0.,12.0,0.,12.0,0.,12.0
1981-08-28 03:32:37.440 ,7,0,0.,12.0,0.,12.0,0.,12.0,0.,12.0
1981-08-28 03:32:49.440 ,7,1,0.,12.0,0.,12.0,0.,12.0,0.,12.0
1981-08-28 03:33:01.440 ,7,1,0.,12.0,0.,12.0,0.,12.0,0.,12.0
1981-08-28 03:33:13.440 ,6,1,0.,12.0,0.,12.0,0.,12.0,0.,12.0
1981-08-28 03:33:25.440 ,6,1,0.,12.0,0.,12.0,0.,12.0,0.,12.0
1981-08-28 03:33:37.440 ,5,1,0.,12.0,0.,12.0,0.,12.0,0.,12.0
1981-08-28 03:33:49.440 ,5,1,0.,12.0,0.,12.0,0.,12.0,0.,12.0
1981-08-28 03:34:01.440 ,4,1,0.,12.0,0.,12.0,0.,12.0,0.,12.0
1981-08-28 03:34:13.440 ,4,1,0.,12.0,0.,12.0,0.,12.0,0.,12.0
1981-08-28 03:34:25.440 ,3,1,0.,12.0,0.,12.0,0.,12.0,0.,12.0
1981-08-28 03:34:37.440 ,3,1,0.,12.0,0.,12.0,0.,12.0,0.,12.0
1981-08-28 03:34:49.440 ,2,1,0.,12.0,0.,12.0,0.,12.0,0.,12.0
1981-08-28 03:35:01.440 ,2,1,0.,12.0,0.,12.0,0.,12.0,0.,12.0
1981-08-28 03:35:13.440 ,1,1,0.,12.0,0.,12.0,0.,12.0,0.,12.0
1981-08-28 03:35:25.440 ,1,1,0.,12.0,0.,12.0,0.,12.0,0.,12.0
1981-08-28 03:35:37.440 ,0,1,0.,12.0,0.,12.0,0.,12.0,0.,12.0
1981-08-28 03:35:49.440 ,0,1,0.,12.0,0.,12.0,0.,12.0,0.,12.0
1981-08-28 03:36:49.440 ,0,0,0.,12.0,0.,12.0,0.,12.0,0.,12.0
1981-08-28 03:37:01.440 ,0,0,0.,12.0,0.,12.0,0.,12.0,0.,12.0
1981-08-28 03:37:13.440 ,3,1,0.,12.0,0.,12.0,0.,12.0,0.,12.0
1981-08-28 03:37:25.440 ,3,1,0.,12.0,0.,12.0,0.,12.0,0.,12.0
1981-08-28 03:37:37.440 ,4,1,0.,12.0,0.,12.0,0.,12.0,0.,12.0
1981-08-28 03:37:49.440 ,4,1,0.,12.0,0.,12.0,0.,12.0,0.,12.0
1981-08-28 03:38:01.440 ,5,1,0.,12.0,0.,12.0,0.,12.0,0.,12.0
1981-08-28 03:38:13.440 ,5,1,0.,12.0,0.,12.0,0.,12.0,0.,12.0
1981-08-28 03:38:25.440 ,6,1,0.,12.0,0.,12.0,0.,12.0,0.,12.0
1981-08-28 03:38:37.440 ,6,1,0.,12.0,0.,12.0,0.,12.0,0.,12.0
1981-08-28 03:38:49.440 ,7,1,0.,12.0,0.,12.0,0.,12.0,0.,12.0
1981-08-28 03:39:01.440 ,7,1,0.,12.0,0.,12.0,0.,12.0,0.,12.0
1981-08-28 03:39:13.440 ,7,1,0.,12.0,0.,12.0,0.,12.0,0.,12.0
1981-08-28 03:39:25.440 ,7,1,0.,12.0,0.,12.0,0.,12.0,0.,12.0
1981-08-28 03:39:37.440 ,7,0,0.,12.0,0.,12.0,0.,12.0,0.,12.0
1981-08-28 03:39:49.440 ,7,0,0.,12.0,0.,12.0,0.,12.0,0.,12.0
1981-08-28 03:40:01.440 ,6,1,0.,12.0,0.,12.0,0.,12.0,0.,12.0
1981-08-28 03:40:13.440 ,6,1,0.,12.0,0.,12.0,0.,12.0,0.,12.0
1981-08-28 03:40:25.440 ,6,0,0.,12.0,0.,12.0,0.,12.0,0.,12.0
1981-08-28 03:40:37.440 ,6,0,0.,12.0,0.,12.0,0.,12.0,0.,12.0
1981-08-28 03:40:49.440 ,5,1,0.,12.0,0.,12.0,0.,12.0,0.,12.0
1981-08-28 03:41:01.440 ,5,1,0.,12.0,0.,12.0,0.,12.0,0.,12.0
1981-08-28 03:41:13.440 ,5,0,0.,12.0,0.,12.0,0.,12.0,0.,12.0
1981-08-28 03:41:25.440 ,5,0,0.,12.0,0.,12.0,0.,12.0,0.,12.0
1981-08-28 03:41:37.440 ,4,1,0.,12.0,0.,12.0,0.,12.0,0.,12.0
1981-08-28 03:41:49.440 ,4,1,0.,12.0,0.,12.0,0.,12.0,0.,12.0
1981-08-28 03:42:01.440 ,4,0,0.,12.0,0.,12.0,0.,12.0,0.,12.0
1981-08-28 03:42:13.440 ,4,0,0.,12.0,0.,12.0,0.,12.0,0.,12.0
1981-08-28 03:42:25.440 ,3,1,0.,12.0,0.,12.0,0.,12.0,0.,12.0
1981-08-28 03:42:37.440 ,3,1,0.,12.0,0.,12.0,0.,12.0,0.,12.0
1981-08-28 03:42:49.440 ,3,0,0.,12.0,0.,12.0,0.,12.0,0.,12.0
1981-08-28 03:43:01.440 ,3,0,0.,12.0,0.,12.0,0.,12.0,0.,12.0
1981-08-28 03:43:13.440 ,2,1,0.,12.0,0.,12.0,0.,12.0,0.,12.0
1981-08-28 03:43:25.440 ,2,1,0.,12.0,0.,12.0,0.,12.0,0.,12.0
1981-08-28 03:43:37.440 ,2,0,0.,12.0,0.,12.0,0.,12.0,0.,12.0
1981-08-28 03:43:49.440 ,2,0,0.,12.0,0.,12.0,0.,12.0,0.,12.0
1981-08-28 03:44:01.440 ,1,1,0.,12.0,0.,12.0,0.,12.0,0.,12.0
1981-08-28 03:44:13.440 ,1,1,0.,12.0,0.,12.0,0.,12.0,0.,12.0
1981-08-28 03:44:25.440 ,1,0,0.,12.0,0.,12.0,0.,12.0,0.,12.0
1981-08-28 03:44:37.440 ,1,0,0.,12.0,0.,12.0,0.,12.0,0.,12.0
1981-08-28 03:44:49.440 ,0,1,0.,12.0,0.,12.0,0.,12.0,0.,12.0
1981-08-28 03:45:01.440 ,0,1,0.,12.0,0.,12.0,0.,12.0,0.,12.0
1981-08-28 03:45:13.440 ,0,0,0.,12.0,0.,12.0,0.,12.0,0.,12.0
1981-08-28 03:45:25.440 ,0,0,0.,12.0,0.,12.0,0.,12.0,0.,12.0
1981-08-28 03:46:25.440 ,0,0,0.,12.0,0.,12.0,0.,12.0,0.,12.0
1981-08-28 03:46:37.440 ,0,0,0.,12.0,0.,12.0,0.,12.0,0.,12.0
1981-08-28 03:46:49.440 ,0,0,0.,12.0,0.,12.0,0.,12.0,0.,12.0
1981-08-28 03:47:01.440 ,0,0,0.,12.0,0.,12.0,0.,12.0,0.,12.0
1981-08-28 03:47:13.440 ,2,1,0.,12.0,0.,12.0,0.,12.0,0.,12.0
1981-08-28 03:47:25.440 ,2,1,0.,12.0,0.,12.0,0.,12.0,0.,12.0
1981-08-28 03:47:37.440 ,2,0,0.,12.0,0.,12.0,0.,12.0,0.,12.0
1981-08-28 03:47:49.440 ,2,0,0.,12.0,0.,12.0,0.,12.0,0.,12.0
1981-08-28 03:48:01.440 ,3,1,0.,12.0,0.,12.0,0.,12.0,0.,12.0
1981-08-28 03:48:13.440 ,3,1,0.,12.0,0.,12.0,0.,12.0,0.,12.0
1981-08-28 03:48:25.440 ,3,0,0.,12.0,0.,12.0,0.,12.0,0.,12.0
1981-08-28 03:48:37.440 ,3,0,0.,12.0,0.,12.0,0.,12.0,0.,12.0
1981-08-28 03:48:49.440 ,4,1,0.,12.0,0.,12.0,0.,12.0,0.,12.0
1981-08-28 03:49:01.440 ,4,1,0.,12.0,0.,12.0,0.,12.0,0.,12.0
1981-08-28 03:49:13.440 ,4,0,0.,12.0,0.,12.0,0.,12.0,0.,12.0
1981-08-28 03:49:25.440 ,4,0,0.,12.0,0.,12.0,0.,12.0,0.,12.0
1981-08-28 03:49:37.440 ,5,1,0.,12.0,0.,12.0,0.,12.0,0.,12.0
1981-08-28 03:49:49.440 ,5,1,0.,12.0,0.,12.0,0.,12.0,0.,12.0
1981-08-28 03:50:01.440 ,5,0,0.,12.0,0.,12.0,0.,12.0,0.,12.0
1981-08-28 03:50:13.440 ,5,0,0.,12.0,0.,12.0,0.,12.0,0.,12.0
1981-08-28 03:50:25.440 ,6,1,0.,12.0,0.,12.0,0.,12.0,0.,12.0
1981-08-28 03:50:37.440 ,6,1,0.,12.0,0.,12.0,0.,12.0,0.,12.0
1981-08-28 03:50:49.440 ,6,0,0.,12.0,0.,12.0,0.,12.0,0.,12.0
1981-08-28 03:51:01.440 ,6,0,0.,12.0,0.,12.0,0.,12.0,0.,12.0
1981-08-28 03:51:13.440 ,7,1,0.,12.0,0.,12.0,0.,12.0,0.,12.0
1981-08-28 03:51:25.440 ,7,1,0.,12.0,0.,12.0,0.,12.0,0.,12.0
1981-08-28 03:51:37.440 ,7,0,0.,12.0,0.,12.0,0.,12.0,0.,12.0
1981-08-28 03:51:49.440 ,7,0,0.,12.0,0.,12.0,0.,12.0,0.,12.0
1981-08-28 03:52:01.440 ,7,1,0.,12.0,0.,12.0,0.,12.0,0.,12.0
1981-08-28 03:52:13.440 ,7,1,0.,12.0,0.,12.0,0.,12.0,0.,12.0
1981-08-28 03:52:25.440 ,6,1,0.,12.0,0.,12.0,0.,12.0,0.,12.0
1981-08-28 03:52:37.440 ,6,1,0.,12.0,0.,12.0,0.,12.0,0.,12.0
1981-08-28 03:52:49.440 ,5,1,0.,12.0,0.,12.0,0.,12.0,0.,12.0
1981-08-28 03:53:01.440 ,5,1,0.,12.0,0.,12.0,0.,12.0,0.,12.0
1981-08-28 03:53:13.440 ,4,1,0.,12.0,0.,12.0,0.,12.0,0.,12.0
1981-08-28 03:53:25.440 ,4,1,0.,12.0,0.,12.0,0.,12.0,0.,12.0
1981-08-28 03:53:37.440 ,3,1,0.,12.0,0.,12.0,0.,12.0,0.,12.0
1981-08-28 03:53:49.440 ,3,1,0.,12.0,0.,12.0,0.,12.0,0.,12.0
1981-08-28 03:54:01.440 ,2,1,0.,12.0,0.,12.0,0.,12.0,0.,12.0
1981-08-28 03:54:13.440 ,2,1,0.,12.0,0.,12.0,0.,12.0,0.,12.0
1981-08-28 03:54:25.440 ,1,1,0.,12.0,0.,12.0,0.,12.0,0.,12.0
1981-08-28 03:54:37.440 ,1,1,0.,12.0,0.,12.0,0.,12.0,0.,12.0
1981-08-28 03:54:49.440 ,0,1,0.,12.0,0.,12.0,0.,12.0,0.,12.0
1981-08-28 03:55:01.440 ,0,1,0.,12.0,0.,12.0,0.,12.0,0.,12.0
1981-08-28 03:55:13.440 ,0,1,0.,12.0,0.,12.0,0.,12.0,0.,12.0
1981-08-28 03:55:25.440 ,0,1,0.,12.0,0.,12.0,0.,12.0,0.,12.0
1981-08-28 03:55:37.440 ,1,1,0.,12.0,0.,12.0,0.,12.0,0.,12.0
1981-08-28 03:55:49.440 ,1,1,0.,12.0,0.,12.0,0.,12.0,0.,12.0
1981-08-28 03:56:01.440 ,2,1,0.,12.0,0.,12.0,0.,12.0,0.,12.0
1981-08-28 03:56:13.440 ,2,1,0.,12.0,0.,12.0,0.,12.0,0.,12.0
1981-08-28 03:56:25.440 ,3,1,0.,12.0,0.,12.0,0.,12.0,0.,12.0
1981-08-28 03:56:37.440 ,3,1,0.,12.0,0.,12.0,0.,12.0,0.,12.0
1981-08-28 03:57:37.440 ,0,0,0.,12.0,0.,12.0,0.,12.0,0.,12.0
1981-08-28 03:57:49.440 ,0,0,0.,12.0,0.,12.0,0.,12.0,0.,12.0
1981-08-28 03:58:01.440 ,7,1,0.,12.0,0.,12.0,0.,12.0,0.,12.0
1981-08-28 03:58:13.440 ,7,1,0.,12.0,0.,12.0,0.,12.0,0.,12.0
1981-08-28 03:58:25.440 ,7,1,0.,12.0,0.,12.0,0.,12.0,0.,12.0
1981-08-28 03:58:37.440 ,7,1,0.,12.0,0.,12.0,0.,12.0,0.,12.0
1981-08-28 03:58:49.440 ,7,0,0.,12.0,0.,12.0,0.,12.0,0.,12.0
1981-08-28 03:59:01.440 ,7,0,0.,12.0,0.,12.0,0.,12.0,0.,12.0
1981-08-28 03:59:13.440 ,6,1,0.,12.0,0.,12.0,0.,12.0,0.,12.0
1981-08-28 03:59:25.440 ,6,1,0.,12.0,0.,12.0,0.,12.0,0.,12.0
1981-08-28 03:59:37.440 ,6,0,0.,12.0,0.,12.0,0.,12.0,0.,12.0
1981-08-28 03:59:49.440 ,6,0,0.,12.0,0.,12.0,0.,12.0,0.,12.0
1981-08-28 04:00:01.440 ,5,1,0.,12.0,0.,12.0,0.,12.0,0.,12.0
1981-08-28 04:00:13.440 ,5,1,0.,12.0,0.,12.0,0.,12.0,0.,12.0
1981-08-28 04:00:25.440 ,5,0,0.,12.0,0.,12.0,0.,12.0,0.,12.0
1981-08-28 04:00:37.440 ,5,0,0.,12.0,0.,12.0,0.,12.0,0.,12.0
1981-08-28 04:00:49.440 ,4,1,0.,12.0,0.,12.0,0.,12.0,0.,12.0
1981-08-28 04:01:01.440 ,4,1,0.,12.0,0.,12.0,0.,12.0,0.,12.0
1981-08-28 04:01:13.440 ,4,0,0.,12.0,0.,12.0,0.,12.0,0.,12.0
1981-08-28 04:01:25.440 ,4,0,0.,12.0,0.,12.0,0.,12.0,0.,12.0
1981-08-28 04:01:37.440 ,3,1,0.,12.0,0.,12.0,0.,12.0,0.,12.0
1981-08-28 04:01:49.440 ,3,1,0.,12.0,0.,12.0,0.,12.0,0.,12.0
1981-08-28 04:02:01.440 ,3,0,0.,12.0,0.,12.0,0.,12.0,0.,12.0
1981-08-28 04:02:13.440 ,3,0,0.,12.0,0.,12.0,0.,12.0,0.,12.0
1981-08-28 04:02:25.440 ,2,1,0.,12.0,0.,12.0,0.,12.0,0.,12.0
1981-08-28 04:02:37.440 ,2,1,0.,12.0,0.,12.0,0.,12.0,0.,12.0
1981-08-28 04:02:49.440 ,2,0,0.,12.0,0.,12.0,0.,12.0,0.,12.0
1981-08-28 04:03:01.440 ,2,0,0.,12.0,0.,12.0,0.,12.0,0.,12.0
1981-08-28 04:03:13.440 ,1,1,0.,12.0,0.,12.0,0.,12.0,0.,12.0
1981-08-28 04:03:25.440 ,1,1,0.,12.0,0.,12.0,0.,12.0,0.,12.0
1981-08-28 04:03:37.440 ,1,0,0.,12.0,0.,12.0,0.,12.0,0.,12.0
1981-08-28 04:03:49.440 ,1,0,0.,12.0,0.,12.0,0.,12.0,0.,12.0
1981-08-28 04:04:49.440 ,0,0,0.,12.0,0.,12.0,0.,12.0,0.,12.0
1981-08-28 04:05:01.440 ,0,0,0.,12.0,0.,12.0,0.,12.0,0.,12.0
1981-08-28 04:05:13.440 ,0,0,0.,12.0,0.,12.0,0.,12.0,0.,12.0
1981-08-28 04:05:25.440 ,0,0,0.,12.0,0.,12.0,0.,12.0,0.,12.0
1981-08-28 04:05:37.440 ,1,1,0.,12.0,0.,12.0,0.,12.0,0.,12.0
1981-08-28 04:05:49.440 ,1,1,0.,12.0,0.,12.0,0.,12.0,0.,12.0
1981-08-28 04:06:01.440 ,1,0,0.,12.0,0.,12.0,0.,12.0,0.,12.0
1981-08-28 04:06:13.440 ,1,0,0.,12.0,0.,12.0,0.,12.0,0.,12.0
1981-08-28 04:06:25.440 ,2,1,0.,12.0,0.,12.0,0.,12.0,0.,12.0
1981-08-28 04:06:37.440 ,2,1,0.,12.0,0.,12.0,0.,12.0,0.,12.0
1981-08-28 04:06:49.440 ,2,0,0.,12.0,0.,12.0,0.,12.0,0.,12.0
1981-08-28 04:07:01.440 ,2,0,0.,12.0,0.,12.0,0.,12.0,0.,12.0
1981-08-28 04:08:01.440 ,0,0,0.,12.0,0.,12.0,0.,12.0,0.,12.0
1981-08-28 04:08:13.440 ,0,0,0.,12.0,0.,12.0,0.,12.0,0.,12.0
1981-08-28 04:08:25.440 ,0,0,0.,12.0,0.,12.0,0.,12.0,0.,12.0
1981-08-28 04:08:37.440 ,0,0,0.,12.0,0.,12.0,0.,12.0,0.,12.0
1981-08-28 04:08:49.440 ,5,1,0.,12.0,0.,12.0,0.,12.0,0.,12.0
1981-08-28 04:09:01.440 ,5,1,0.,12.0,0.,12.0,0.,12.0,0.,12.0
1981-08-28 04:09:13.440 ,5,0,0.,12.0,0.,12.0,0.,12.0,0.,12.0
1981-08-28 04:09:25.440 ,5,0,0.,12.0,0.,12.0,0.,12.0,0.,12.0
1981-08-28 04:09:37.440 ,6,1,0.,12.0,0.,12.0,0.,12.0,0.,12.0
1981-08-28 04:09:49.440 ,6,1,0.,12.0,0.,12.0,0.,12.0,0.,12.0
1981-08-28 04:10:01.440 ,6,0,0.,12.0,0.,12.0,0.,12.0,0.,12.0
1981-08-28 04:10:13.440 ,6,0,0.,12.0,0.,12.0,0.,12.0,0.,12.0
1981-08-28 04:10:25.440 ,7,1,0.,12.0,0.,12.0,0.,12.0,0.,12.0
1981-08-28 04:10:37.440 ,7,1,0.,12.0,0.,12.0,0.,12.0,0.,12.0
1981-08-28 04:10:49.440 ,7,0,0.,12.0,0.,12.0,0.,12.0,0.,12.0
1981-08-28 04:11:01.440 ,7,0,0.,12.0,0.,12.0,0.,12.0,0.,12.0
1981-08-28 04:11:13.440 ,7,1,0.,12.0,0.,12.0,0.,12.0,0.,12.0
1981-08-28 04:11:25.440 ,7,1,0.,12.0,0.,12.0,0.,12.0,0.,12.0
1981-08-28 04:11:37.440 ,6,1,0.,12.0,0.,12.0,0.,12.0,0.,12.0
1981-08-28 04:11:49.440 ,6,1,0.,12.0,0.,12.0,0.,12.0,0.,12.0
1981-08-28 04:12:01.440 ,5,1,0.,12.0,0.,12.0,0.,12.0,0.,12.0
1981-08-28 04:12:13.440 ,5,1,0.,12.0,0.,12.0,0.,12.0,0.,12.0
1981-08-28 04:12:25.440 ,4,1,0.,12.0,0.,12.0,0.,12.0,0.,12.0
1981-08-28 04:12:37.440 ,4,1,0.,12.0,0.,12.0,0.,12.0,0.,12.0
1981-08-28 04:12:49.440 ,3,1,0.,12.0,0.,12.0,0.,12.0,0.,12.0
1981-08-28 04:13:01.440 ,3,1,0.,12.0,0.,12.0,0.,12.0,0.,12.0
1981-08-28 04:13:13.440 ,2,1,0.,12.0,0.,12.0,0.,12.0,0.,12.0
1981-08-28 04:13:25.440 ,2,1,0.,12.0,0.,12.0,0.,12.0,0.,12.0
1981-08-28 04:13:37.440 ,1,1,0.,12.0,0.,12.0,0.,12.0,0.,12.0
1981-08-28 04:13:49.440 ,1,1,0.,12.0,0.,12.0,0.,12.0,0.,12.0
1981-08-28 04:14:01.440 ,0,1,0.,12.0,0.,12.0,0.,12.0,0.,12.0
1981-08-28 04:14:13.440 ,0,1,0.,12.0,0.,12.0,0.,12.0,0.,12.0
1981-08-28 04:14:25.440 ,0,1,0.,12.0,0.,12.0,0.,12.0,0.,12.0
1981-08-28 04:14:37.440 ,0,1,0.,12.0,0.,12.0,0.,12.0,0.,12.0
1981-08-28 04:14:49.440 ,1,1,0.,12.0,0.,12.0,0.,12.0,0.,12.0
1981-08-28 04:15:01.440 ,1,1,0.,12.0,0.,12.0,0.,12.0,0.,12.0
1981-08-28 04:15:13.440 ,2,1,0.,12.0,0.,12.0,0.,12.0,0.,12.0
1981-08-28 04:15:25.440 ,2,1,0.,12.0,0.,12.0,0.,12.0,0.,12.0
1981-08-28 04:15:37.440 ,3,1,0.,12.0,0.,12.0,0.,12.0,0.,12.0
1981-08-28 04:15:49.440 ,3,1,0.,12.0,0.,12.0,0.,12.0,0.,12.0
1981-08-28 04:16:01.440 ,4,1,0.,12.0,0.,12.0,0.,12.0,0.,12.0
1981-08-28 04:16:13.440 ,4,1,0.,12.0,0.,12.0,0.,12.0,0.,12.0
1981-08-28 04:16:25.440 ,5,1,0.,12.0,0.,12.0,0.,12.0,0.,12.0
1981-08-28 04:16:37.440 ,5,1,0.,12.0,0.,12.0,0.,12.0,0.,12.0
1981-08-28 04:16:49.440 ,6,1,0.,12.0,0.,12.0,0.,12.0,0.,12.0
1981-08-28 04:17:01.440 ,6,1,0.,12.0,0.,12.0,0.,12.0,0.,12.0
1981-08-28 04:17:13.440 ,7,1,0.,12.0,0.,12.0,0.,12.0,0.,12.0
1981-08-28 04:17:25.440 ,7,1,0.,12.0,0.,12.0,0.,12.0,0.,12.0
1981-08-28 04:17:37.440 ,7,1,0.,12.0,0.,12.0,0.,12.0,0.,12.0
1981-08-28 04:17:49.440 ,7,1,0.,12.0,0.,12.0,0.,12.0,1.,12.0
1981-08-28 04:18:01.440 ,7,0,0.,12.0,0.,12.0,0.,12.0,0.,12.0
1981-08-28 04:18:13.440 ,7,0,0.,12.0,0.,12.0,0.,12.0,0.,12.0
1981-08-28 04:18:25.440 ,6,1,0.,12.0,0.,12.0,0.,12.0,0.,12.0
1981-08-28 04:18:37.440 ,6,1,0.,12.0,0.,12.0,0.,12.0,0.,12.0
1981-08-28 04:18:49.440 ,6,0,0.,12.0,0.,12.0,0.,12.0,0.,12.0
1981-08-28 04:19:01.440 ,6,0,0.,12.0,0.,12.0,0.,12.0,0.,12.0
1981-08-28 04:19:13.440 ,5,1,0.,12.0,0.,12.0,0.,12.0,0.,12.0
1981-08-28 04:19:25.440 ,5,1,0.,12.0,0.,12.0,0.,12.0,0.,12.0
1981-08-28 04:19:37.440 ,5,0,0.,12.0,0.,12.0,0.,12.0,0.,12.0
1981-08-28 04:19:49.440 ,5,0,0.,12.0,0.,12.0,0.,12.0,0.,12.0
1981-08-28 04:20:01.440 ,4,1,0.,12.0,0.,12.0,0.,12.0,0.,12.0
1981-08-28 04:20:13.440 ,4,1,0.,12.0,0.,12.0,0.,12.0,0.,12.0
1981-08-28 04:20:25.440 ,4,0,0.,12.0,0.,12.0,0.,12.0,0.,12.0
1981-08-28 04:20:37.440 ,4,0,0.,12.0,0.,12.0,0.,12.0,0.,12.0
1981-08-28 04:20:49.440 ,3,1,0.,12.0,0.,12.0,0.,12.0,0.,12.0
1981-08-28 04:21:01.440 ,3,1,0.,12.0,0.,12.0,0.,12.0,0.,12.0
1981-08-28 04:21:13.440 ,3,0,0.,12.0,0.,12.0,0.,12.0,0.,12.0
1981-08-28 04:21:25.440 ,3,0,0.,12.0,0.,12.0,0.,12.0,0.,12.0
1981-08-28 04:21:37.440 ,2,1,0.,12.0,0.,12.0,0.,12.0,0.,12.0
1981-08-28 04:21:49.440 ,2,1,0.,12.0,0.,12.0,0.,12.0,0.,12.0
1981-08-28 04:22:01.440 ,2,0,0.,12.0,0.,12.0,0.,12.0,0.,12.0
1981-08-28 04:22:13.440 ,2,0,0.,12.0,0.,12.0,0.,12.0,0.,12.0
1981-08-28 04:22:25.440 ,1,1,0.,12.0,0.,12.0,0.,12.0,0.,12.0
1981-08-28 04:22:37.440 ,1,1,0.,12.0,0.,12.0,0.,12.0,0.,12.0
1981-08-28 04:22:49.440 ,1,0,0.,12.0,0.,12.0,0.,12.0,0.,12.0
1981-08-28 04:23:01.440 ,1,0,0.,12.0,0.,12.0,0.,12.0,0.,12.0
1981-08-28 04:23:13.440 ,0,1,0.,12.0,0.,12.0,0.,12.0,0.,12.0
1981-08-28 04:23:25.440 ,0,1,0.,12.0,0.,12.0,0.,12.0,0.,12.0
1981-08-28 04:23:37.440 ,0,0,0.,12.0,0.,12.0,0.,12.0,0.,12.0
1981-08-28 04:23:49.440 ,0,0,0.,12.0,0.,12.0,0.,12.0,0.,12.0
1981-08-28 04:24:01.440 ,0,1,0.,12.0,0.,12.0,0.,12.0,0.,12.0
1981-08-28 04:24:13.440 ,0,1,0.,12.0,0.,12.0,0.,12.0,0.,12.0
1981-08-28 04:24:25.440 ,0,0,0.,12.0,0.,12.0,0.,12.0,0.,12.0
1981-08-28 04:24:37.440 ,0,0,0.,12.0,0.,12.0,0.,12.0,0.,12.0
1981-08-28 04:24:49.440 ,1,1,0.,12.0,0.,12.0,0.,12.0,0.,12.0
1981-08-28 04:25:01.440 ,1,1,0.,12.0,0.,12.0,0.,12.0,0.,12.0
1981-08-28 04:25:13.440 ,1,0,0.,12.0,0.,12.0,0.,12.0,0.,12.0
1981-08-28 04:25:25.440 ,1,0,0.,12.0,0.,12.0,0.,12.0,0.,12.0
1981-08-28 04:25:37.440 ,2,1,0.,12.0,0.,12.0,0.,12.0,0.,12.0
1981-08-28 04:25:49.440 ,2,1,0.,12.0,0.,12.0,0.,12.0,0.,12.0
1981-08-28 04:26:01.440 ,2,0,0.,12.0,0.,12.0,0.,12.0,0.,12.0
1981-08-28 04:26:13.440 ,2,0,0.,12.0,0.,12.0,0.,12.0,0.,12.0
1981-08-28 04:26:25.440 ,3,1,0.,12.0,0.,12.0,0.,12.0,0.,12.0
1981-08-28 04:26:37.440 ,3,1,0.,12.0,0.,12.0,0.,12.0,0.,12.0
1981-08-28 04:26:49.440 ,3,0,0.,12.0,0.,12.0,0.,12.0,0.,12.0
1981-08-28 04:27:01.440 ,3,0,0.,12.0,0.,12.0,0.,12.0,0.,12.0
1981-08-28 04:27:13.440 ,4,1,0.,12.0,0.,12.0,0.,12.0,0.,12.0
1981-08-28 04:27:25.440 ,4,1,0.,12.0,0.,12.0,0.,12.0,0.,12.0
1981-08-28 04:27:37.440 ,4,0,0.,12.0,0.,12.0,0.,12.0,0.,12.0
1981-08-28 04:27:49.440 ,4,0,0.,12.0,0.,12.0,0.,12.0,0.,12.0
1981-08-28 04:28:01.440 ,5,1,0.,12.0,0.,12.0,0.,12.0,0.,12.0
1981-08-28 04:28:13.440 ,5,1,0.,12.0,0.,12.0,0.,12.0,0.,12.0
1981-08-28 04:28:25.440 ,5,0,0.,12.0,0.,12.0,0.,12.0,0.,12.0
1981-08-28 04:28:37.440 ,5,0,0.,12.0,0.,12.0,0.,12.0,0.,12.0
1981-08-28 04:28:49.440 ,6,1,0.,12.0,0.,12.0,0.,12.0,0.,12.0
1981-08-28 04:29:01.440 ,6,1,0.,12.0,0.,12.0,0.,12.0,0.,12.0
1981-08-28 04:29:13.440 ,6,0,0.,12.0,0.,12.0,0.,12.0,0.,12.0
1981-08-28 04:29:25.440 ,6,0,0.,12.0,0.,12.0,0.,12.0,0.,12.0
1981-08-28 04:29:37.440 ,7,1,0.,12.0,0.,12.0,0.,12.0,0.,12.0
1981-08-28 04:29:49.440 ,7,1,0.,12.0,0.,12.0,0.,12.0,0.,12.0
1981-08-28 04:30:01.440 ,7,0,0.,12.0,0.,12.0,0.,12.0,0.,12.0
1981-08-28 04:30:13.440 ,7,0,0.,12.0,0.,12.0,0.,12.0,0.,12.0
1981-08-28 04:30:25.430 ,7,1,0.,12.0,0.,12.0,0.,12.0,0.,12.0